EW9353 Weather Reports


time (UTC)temp
F
wind
direction
speed
knots
gust
knots
rain 1hr
in
rain 24hr
in
rain mn
in
humidity
%
barometer
mb
20260902070048 53 242 0.0 1.7 0.00 0.00 0.00 86 1021.1
20260902064558 51 242 0.0 0.9 0.00 0.00 0.00 85 1020.9
20260902063044 50 242 0.0 2.6 0.00 0.00 0.00 84 1020.8
20260902061551 49 242 0.0 1.7 0.00 0.00 0.00 84 1020.7
20260902060036 50 242 0.0 0.0 0.00 0.00 0.00 84 1020.5
20260902054535 49 242 0.0 0.0 0.00 0.00 0.00 84 1020.5
20260902053034 50 242 0.0 0.0 0.00 0.00 0.00 84 1020.5
20260902051533 50 242 0.0 0.0 0.00 0.00 0.00 84 1020.5
20260902050030 50 242 0.0 0.0 0.00 0.00 0.00 84 1020.4
20260902044531 50 242 0.0 0.0 0.00 0.00 0.00 84 1020.4
20260902043033 51 242 0.0 1.7 0.00 0.00 0.00 84 1020.5
20260902041526 51 242 0.0 1.7 0.00 0.00 0.00 83 1020.5
20260902040025 51 242 0.0 0.0 0.00 0.00 0.00 84 1020.6
20260902034524 51 242 0.0 0.9 0.00 0.00 0.00 83 1020.8
20260902033043 52 242 0.0 0.9 0.00 0.00 0.00 83 1020.9
20260902031522 52 242 0.0 2.6 0.00 0.00 0.00 84 1020.9
20260902030023 52 242 0.0 2.6 0.00 0.00 0.00 83 1020.8
20260902024522 53 242 0.0 0.0 0.00 0.00 0.00 83 1020.6
20260902023018 53 242 0.0 0.0 0.00 0.00 0.00 83 1020.7
20260902021524 53 242 0.0 0.0 0.00 0.00 0.00 83 1020.8
20260902020013 54 242 0.0 0.9 0.00 0.00 0.00 83 1021.0
20260902014512 54 242 0.0 1.7 0.00 0.00 0.00 83 1021.1
20260902013012 54 242 0.0 1.7 0.00 0.00 0.00 83 1021.0
20260902011510 54 242 0.0 1.7 0.00 0.00 0.00 83 1021.0
20260902010011 54 242 0.0 0.9 0.00 0.00 0.00 83 1021.3
20260902004515 55 242 0.0 0.0 0.00 0.00 0.00 83 1021.3
20260902003005 55 242 0.0 0.0 0.00 0.00 0.00 83 1021.6
20260902001501 55 242 0.0 0.0 0.00 0.00 0.00 83 1021.7
20260902000059 56 242 0.0 1.7 0.00 0.00 0.00 83 1021.6
20260901234600 56 242 0.0 0.0 0.00 0.00 0.00 82 1021.5
20260901233058 57 242 0.0 1.7 0.00 0.00 0.00 82 1021.6
20260901231559 57 242 0.0 0.9 0.00 0.00 0.00 82 1021.7
20260901230057 57 242 0.0 0.0 0.00 0.00 0.00 82 1021.3
20260901224559 58 242 0.0 0.0 0.00 0.00 0.00 81 1021.1
20260901223056 58 242 0.0 0.0 0.00 0.00 0.00 81 1021.1
20260901221555 59 242 0.0 0.0 0.00 0.00 0.00 80 1021.2
20260901220058 60 242 0.0 0.9 0.00 0.00 0.00 80 1021.3
20260901214555 60 242 0.0 0.0 0.00 0.00 0.00 80 1021.4
20260901213053 61 242 0.0 2.6 0.00 0.00 0.00 78 1021.4
20260901211553 62 242 0.9 3.5 0.00 0.00 0.00 77 1021.4
20260901210052 63 242 0.0 0.0 0.00 0.00 0.00 76 1021.2
20260901204551 64 242 0.0 2.6 0.00 0.00 0.00 73 1021.0
20260901203051 66 242 0.0 1.7 0.00 0.00 0.00 72 1020.8
20260901201551 66 242 0.0 3.5 0.00 0.00 0.00 71 1020.6
20260901200105 67 242 2.6 5.2 0.00 0.00 0.00 70 1020.4
20260901194558 68 242 4.3 6.1 0.00 0.00 0.00 71 1020.3
20260901193056 69 242 5.2 7.8 0.00 0.00 0.00 71 1020.1
20260901191548 69 242 3.5 8.7 0.00 0.00 0.00 71 1019.8
20260901190054 71 242 4.3 7.8 0.00 0.00 0.00 70 1019.6
20260901184552 72 240 6.1 8.7 0.00 0.00 0.00 68 1019.5
20260901183051 74 237 3.5 8.7 0.00 0.00 0.00 66 1019.3
20260901181550 75 236 6.1 9.6 0.00 0.00 0.00 63 1019.2
20260901180046 76 234 6.1 11.3 0.00 0.00 0.00 62 1019.0
20260901174545 78 250 7.0 11.3 0.00 0.00 0.00 59 1018.7
20260901173044 79 259 6.1 9.6 0.00 0.00 0.00 55 1018.5
20260901171556 80 259 4.3 8.7 0.00 0.00 0.00 51 1018.4
20260901170044 81 259 5.2 8.7 0.00 0.00 0.00 49 1018.2
20260901164551 81 250 5.2 9.6 0.00 0.00 0.00 49 1018.2
20260901163041 81 259 6.1 9.6 0.00 0.00 0.00 48 1018.2
20260901161544 82 254 4.3 9.6 0.00 0.00 0.00 47 1018.1
20260901160039 82 272 5.2 10.4 0.00 0.00 0.00 46 1018.2
20260901154536 82 269 2.6 6.1 0.00 0.00 0.00 44 1018.2
20260901153033 82 269 2.6 6.1 0.00 0.00 0.00 44 1018.3
20260901151539 81 269 4.3 7.8 0.00 0.00 0.00 47 1018.3
20260901150032 81 268 5.2 12.2 0.00 0.00 0.00 47 1018.4
20260901144528 81 252 5.2 9.6 0.00 0.00 0.00 48 1018.4
20260901143029 81 243 5.2 8.7 0.00 0.00 0.00 47 1018.5
20260901141523 80 247 4.3 8.7 0.00 0.00 0.00 50 1018.6
20260901140026 80 248 3.5 7.0 0.00 0.00 0.00 50 1018.6
20260901134522 79 249 4.3 7.8 0.00 0.00 0.00 51 1018.9
20260901133024 79 259 5.2 9.6 0.00 0.00 0.00 52 1019.0
20260901131513 79 250 3.5 6.1 0.00 0.00 0.00 53 1019.2
20260901130014 79 236 3.5 7.8 0.00 0.00 0.00 53 1019.1
20260901124514 78 221 0.0 4.3 0.00 0.00 0.00 53 1019.2
20260901123008 77 224 2.6 5.2 0.00 0.00 0.00 53 1019.3
20260901121505 76 224 0.9 6.1 0.00 0.00 0.00 56 1019.5
20260901120002 76 224 1.7 6.1 0.00 0.00 0.00 57 1019.4
20260901114601 74 213 2.6 6.1 0.00 0.00 0.00 60 1019.6
20260901113105 73 213 2.6 7.0 0.00 0.00 0.00 59 1019.7
20260901111554 72 254 1.7 5.2 0.00 0.00 0.00 62 1020.0
20260901110056 72 254 3.5 6.1 0.00 0.00 0.00 64 1020.3
20260901104557 70 254 3.5 7.8 0.00 0.00 0.00 68 1020.1
20260901103043 67 242 0.9 4.3 0.00 0.00 0.00 74 1020.3
20260901101538 65 242 0.0 6.1 0.00 0.00 0.00 79 1020.6
20260901100038 62 242 0.0 2.6 0.00 0.00 0.00 83 1020.8
20260901094529 60 242 1.7 4.3 0.00 0.00 0.00 83 1020.7
20260901093026 59 242 0.0 2.6 0.00 0.00 0.00 84 1020.7
20260901091522 58 242 0.9 3.5 0.00 0.00 0.00 84 1020.8
20260901090022 58 242 0.0 3.5 0.00 0.00 0.00 84 1020.8
20260901084522 58 242 0.9 4.3 0.00 0.00 0.00 84 1020.6
20260901083026 57 242 1.7 6.1 0.00 0.00 0.00 84 1020.5
20260901081522 59 242 3.5 5.2 0.00 0.00 0.00 85 1020.3
20260901080019 58 242 0.9 2.6 0.00 0.00 0.00 85 1020.3
20260901074513 56 242 0.0 1.7 0.00 0.00 0.00 86 1020.3
20260901073009 55 242 0.0 0.0 0.00 0.00 0.00 86 1020.3
20260901071509 54 242 0.0 0.0 0.00 0.00 0.00 85 1020.3